Regional Weather Roundup
Issued by NWS Memphis, TN

Home | Current Version | Previous Version | Text Only | Print | Product List | Glossary On
Versions: 1 2 3 4 5 6 7 8 9 10 11 12 13 14 15 16 17 18 19 20 21 22 23 24 25 26 27 28 29 30 31 32 33 34 35 36 37 38 39 40 41 42 43 44 45 46 47 48 49 50
000
ASUS44 KMEG 300500
RWRMEG
MEMPHIS CWA HOURLY WEATHER ROUNDUP
NATIONAL WEATHER SERVICE MEMPHIS TN
1200 AM CDT FRI SEP 30 2016

...WEST TENNESSEE...

CITY           SKY/WX    TMP DP  RH WIND       PRES   REMARKS
MEMPHIS INTL   PTCLDY    63  53  70 NW3       30.13F
NWS MEMPHIS      N/A     59 N/A N/A MISG        N/A
JACKSON          N/A    N/A N/A N/A MISG      30.12F
DYERSBURG      CLEAR    N/A N/A N/A MISG        N/A
PARIS          CLEAR     52  52 100 CALM      30.11F


...EASTERN ARKANSAS...

CITY           SKY/WX    TMP DP  RH WIND       PRES   REMARKS
JONESBORO      CLEAR     62  54  74 CALM      30.14F
WEST MEMPHIS   CLEAR     57  52  83 W3        30.13F
BATESVILLE     CLEAR     57  52  82 W3        30.17F
NEWPORT        PTCLDY    61  55  81 W6        30.16F
WALNUT RIDGE   PTCLDY    63  54  72 W6        30.14F
BLYTHEVILLE    CLOUDY    60  56  86 CALM      30.13F
SEARCY         CLEAR     58  54  86 CALM      30.19F
STUTTGART      CLEAR     61  48  63 N6        30.18F
PINE BLUFF     PTCLDY    62  54  74 NE6       30.18S
MONTICELLO     CLOUDY    64  54  69 NW3       30.17F


...NORTH MISSISSIPPI...

CITY           SKY/WX    TMP DP  RH WIND       PRES   REMARKS
TUPELO         PTCLDY    58  51  78 CALM      30.12F
TUNICA         PTCLDY    55  52  88 CALM      30.16S
CLARKSDALE       N/A     55  54  94 CALM      30.16S
GREENWOOD      CLEAR     57  52  83 CALM      30.15S
STARKVILLE     PTCLDY    55  52  88 CALM      30.15S
GOLDEN TRIANGL PTCLDY    59  46  63 NW5       30.13S


...SOUTHEAST MISSOURI...

CITY           SKY/WX    TMP DP  RH WIND       PRES   REMARKS
KENNETT        CLOUDY    61  57  88 NW3       30.12F
WEST PLAINS    CLEAR     59  50  72 NW7       30.20F
POPLAR BLUFF   CLOUDY    62  58  86 NW6       30.13F
CAPE GIRARDEAU CLOUDY    59  57  93 CALM      30.13S


...NORTHWEST ALABAMA...

CITY           SKY/WX    TMP DP  RH WIND       PRES   REMARKS
MUSCLE SHOALS  CLEAR     56  51  84 N3        30.12F


...MIDDLE TENNESSEE...

CITY           SKY/WX    TMP DP  RH WIND       PRES   REMARKS
NASHVILLE      CLEAR     51  49  92 S5        30.10F
CLARKSVILLE    CLEAR     54  52  93 W6        30.09F


...WESTERN KENTUCKY...

CITY           SKY/WX    TMP DP  RH WIND       PRES   REMARKS
PADUCAH        PTCLDY    55  53  93 W3        30.10F FOG


...CENTRAL ARKANSAS...

CITY           SKY/WX    TMP DP  RH WIND       PRES   REMARKS
LITTLE ROCK    PTCLDY    66  53  63 NW5       30.19S


SKY/WX REPORTED AS FAIR MEANS FEW OR NO CLOUDS BELOW
12 THOUSAND FEET.




USA.gov is the U.S. government's official web portal to all federal, state and local government web resources and services.